www.pogodaiklimat.ru

Погода и климат >> Архив погоды >> Индия >> Raipur


ПОГОДА в Raipur

  • Прогноз погоды в Raipur
  • Монитор погоды в Raipur
  • Климат города

АРХИВ ПОГОДЫ в Raipur

Время (UTC), дата Ветер
(напр.,м/с)
 
Видим.   Явления Облачность Т
(С)
Тd
(С)
f
(%)
Тe
(С)
Тes
(С)
Комфортность P
(гПа)
Po
(гПа)
Тmin
(С)
Tmax
(С)
R
(мм)
R24
(мм)
S
(см)
06 9.12 штиль 0 2000 м мгла ясно +26.2 +14.1 47 +28 +43 жарко 1013.9 1014.0
09 9.12 штиль 0 4000 м мгла 6/3 600 м
[Sc Ac trans Ci fib]
+28.0 +14.8 44 +30 +35 жарко 1010.5 1011.0
12 9.12 штиль 0 4000 м 4/0
[]
+26.4 +16.0 53 +30 +30 душно 1010.5 1011.0 +28.8
15 9.12 штиль 0 4000 м ясно +22.4 +16.9 71 +27 +27 душно 1012.1 1012.0
03 10.12 штиль 0 2000 м дымка ясно +20.4 +17.1 81 +23 +27 комфорт 1014.2 1014.0 +18.6 0.6
06 10.12 СВ 1 4000 м мгла 3/1 600 м
[Sc Ac trans]
+24.6 +15.7 58 +28 +39 душно 1013.1 1013.0 0.0
09 10.12 З 1 4000 м слабый дождь 10/5 600 м
[Sc As op]
+24.0 +18.3 70 +28 +29 душно 1011.7 1012.0 0.0
12 10.12 штиль 0 4000 м мгла {дождь} 3/0
[Ac trans Ci fib]
+23.0 +18.2 74 +29 +29 очень
душно
1011.2 1011.0 +26.5 0.8
15 10.12 штиль 0 4000 м мгла 6/3 600 м
[Sc Ac trans]
+21.4 +18.9 86 +26 +26 душно 1013.2 1013.0 0.8
03 11.12 штиль 0 2000 м дымка 9/4 600 м
[Sc As op]
+19.8 +17.9 89 +22 +23 комфорт 1015.0 1015.0 +19.1 0.8
06 11.12 В 1 2000 м мгла 9/4 750 м
[Sc As op]
+23.4 +18.3 73 +29 +32 душно 1014.5 1015.0
09 11.12 ЮЗ 1 4000 м мгла 6/1 750 м
[Sc Ci fib]
+25.8 +18.3 63 +30 +36 душно 1011.5 1012.0
12 11.12 штиль 0 4000 м мгла 3/0
[Ci fib]
+24.4 +18.1 68 +29 +29 душно 1012.8 1013.0 +26.4
15 11.12 штиль 0 2000 м дымка ясно +21.4 +18.2 82 +26 +26 душно 1014.0 1014.0
03 12.12 штиль 0 500 м туман ясно +19.4 +17.4 88 +21 +25 комфорт 1016.6 1017.0 +18.1
06 12.12 штиль 0 1000 м мгла {туман} 1/0
[Ci fib]
+25.4 +17.4 61 +29 +44 душно 1015.3 1015.0
09 12.12 штиль 0 4000 м мгла 4/3 600 м
[Sc Ci fib]
+27.6 +14.3 44 +30 +36 жарко 1011.9 1012.0
12 12.12 штиль 0 4000 м мгла ясно +25.0 +13.4 49 +27 +27 жарко 1012.2 1012.0 +27.8
15 12.12 штиль 0 4000 м ясно +20.6 +14.5 68 +23 +23 комфорт 1014.8 1015.0
03 13.12 С 1 2000 м дымка 8/8 600 м
[]
+18.6 +14.1 75 +20 +21 1017.2 1017.0 +17.8
06 13.12 В 1 4000 м мгла 6/3 600 м
[Sc Ac trans Ci fib]
+23.4 +16.2 64 +28 +35 душно 1017.1 1017.0
09 13.12 штиль 0 4000 м мгла 4/1 750 м
[Sc Ci fib]
+27.2 +12.0 39 +28 +36 жарко 1013.8 1014.0
12 13.12 штиль 0 2000 м мгла ясно +24.8 +15.2 55 +28 +28 жарко 1014.3 1014.0 +28.1
15 13.12 штиль 0 2000 м дымка ясно +21.0 +16.4 75 +24 +24 комфорт 1016.8 1017.0
03 14.12 штиль 0 200 м туман ясно +16.6 +15.9 96 +16 +20 1019.8 1020.0 +16.1
06 14.12 ЮВ 1 1000 м мгла {туман} 4/1 600 м
[Sc Ci fib]
+23.4 +16.9 67 +29 +39 душно 1018.8 1019.0
09 14.12 В 1 2000 м мгла 3/3 900 м
[Cu med, cong]
+26.4 +14.8 49 +29 +34 жарко 1015.0 1015.0
12 14.12 штиль 0 4000 м мгла ясно +25.0 +14.6 52 +28 +28 жарко 1016.2 1016.0 +27.0
15 14.12 штиль 0 4000 м мгла ясно +20.6 +15.6 73 +23 +23 комфорт 1018.5 1019.0
03 15.12 В 2 4000 м мгла ясно +17.4 +10.3 63 +18 +21 1020.0 1020.0 +15.3
06 15.12 В 3 4000 м мгла ясно +24.6 +10.2 40 +26 +35 жарко 1018.4 1018.0
09 15.12 СВ 1 4000 м 3/0
[Ci fib]
+26.2 +5.1 26 +25 +33 комфорт 1016.0 1016.0
12 15.12 штиль 0 4000 м мгла 4/0
[Ac trans Ci fib]
+23.0 +8.6 40 +24 +24 комфорт 1016.9 1017.0 +27.1
15 15.12 штиль 0 4000 м ясно +20.0 +8.6 48 +21 +21 комфорт 1019.2 1019.0

 

Местоположение метеостанции Raipur (Chhattisgarh, Индия): широта 21.23 долгота 81.65 высота над уровнем моря 298 м.

В архиве по умолчанию представлена погода в Raipur за последнюю неделю. Архивные данные за месяц целиком и за предыдущие месяцы, начиная с января 2011 года, Вы можете получить, выбрав интересующий диапазон дат из раскрывающегося списка и нажав кнопку "Ввод!".


*Определитесь, кто Вы:
робот инопланетянин человек

Внимание! Время в таблицах - всемирное. Для получения местного времени необходимо прибавить поправку, которая в Raipur равна 5.5 ч.

Смотрите также архив погоды в соседних городах и на ближайших метеорологических станциях:

Погода в Durg (Chhattisgarh, Индия) (39 км)
Погода в Rajnandgaon (Chhattisgarh, Индия) (66 км)
Погода в Bilaspur (Chhattisgarh, Индия) (111 км)
Погода в Raipur Airport (Chhattisgarh, Индия) (111 км)
Погода в Malanjkhand (Madhya Pradesh, Индия) (130 км)
Погода в Gondia (Maharashtra, Индия) (153 км)
Погода в Pendra Road (Chhattisgarh, Индия) (173 км)
Погода в Bramhapuri (Maharashtra, Индия) (200 км)
Погода в Mandla (Madhya Pradesh, Индия) (200 км)
Погода в Titlagarh (Orissa, Индия) (200 км)

Пояснения к столбцам:

Ветер - указаны скорость ветра в м/с - средняя за 10 мин, порывы в срок и между сроками (в фигурных скобках) и направление, откуда дует ветер: С - северный, СВ - северо-восточный, В - восточный, ЮВ - юго-восточный, Ю - южный, ЮЗ - юго-западный, З - западный, СЗ - северо-западный.
Видимость - горизонтальная дальность видимости в метрах или километрах. При видимости от 1 до 10 км при отсутствии осадков обычно наблюдается дымка, при ухудшении видимости до 1 км и менее - туман. В сухую погоду видимость может ухудшаться дымом, пылью или мглою.
Явления - указаны атмосферные явления, наблюдавшиеся в срок или в последний час перед сроком; фигурными скобками обозначены явления, наблюдавшиеся между сроками (за 1-3 часа до срока); квадратными скобками обозначены град или гололедные отложения с указанием их диаметра в мм.
Облачность - указаны через наклонную черту общая и нижняя облачность в баллах и высота нижней границы облаков в метрах; квадратными скобками обозначены формы облаков: Ci - перистые, Cs - перисто-слоистые, Cc - перисто-кучевые, Ac - высококучевые, As - высокослоистые, Sc - слоисто-кучевые, Ns - слоисто-дождевые, Cu - кучевые, Cb - кучево-дождевые. Подробнее классификацию облаков см. в Атласе облаков (PDF).
T - Температура воздуха - температура, измеренная на высоте 2 м над землей.
Td - Температура точки росы - температура, при понижении до которой содержащийся в воздухе водяной пар достигнет насыщения.
f - Относительная влажность воздуха - влажноcть воздуха, измеренная на высоте 2 м над землей.
Te - Эффективная температура - температура, которую ощущает одетый по сезону человек в тени. Характеристика душности погоды. При расчете учитывается влияние влажности воздуха и скорости ветра на теплоощущения человека.
Tes - Эффективная температура на солнце - температура, которую ощущает человек, с поправкой на солнечный нагрев. Характеристика знойности погоды. Зависит от высоты солнца над горизонтом, облачности и скорости ветра. Ночью, в пасмурную погоду, а также при ветре 12 м/с и более поправка равна нулю.
P - Атмосферное давление - приведенное к уровню моря атмосферное давление.
Po - Атмосферное давление - измеренное на уровне метеостанции атмосферное давление.
Tmin - Минимальная температура - минимум температуры воздуха на высоте 2 м над землей.
Tmax - Максимальная температура - максимум температуры воздуха на высоте 2 м над землей.
R - Количество осадков - Количество выпавших осадков за период времени, мм. При наведении курсора мыши на число - период времени, за который выпало указанное количество осадков.
R24 - Количество осадков - Количество выпавших осадков за 24 часа, мм.
S - Снежный покров - Высота снежного покрова, см. При наведении курсора мыши на число - состояние снежного покрова и степень покрытия местности в баллах.